Location: ????????
(37.6846°N, 24.0673°E)
Time: 14:54:13
(UTC+00:00)

SL-08 R/B - Pass Details

Date: 14 July 2020
Orbit: 675 x 738 km, 98.4° (Epoch: 04 August)

Event Time Altitude Azimuth Distance (km) Brightness Sun altitude
Exits shadow 01:22:18 20° 171° (S) 1,595 4.8 -18.1°
Maximum altitude 01:25:37 80° 257° (WSW) 720 3.2 -17.7°
Drops below altitude 10° 01:30:27 10° 345° (NNW) 2,203 6.3 -17.0°
Sets 01:32:45 0° 346° (NNW) 3,137 7.1 -16.7°
